Date,TemperatureHighF,TemperatureAvgF,TemperatureLowF,DewpointHighF,DewpointAvgF,DewpointLowF,HumidityHigh,HumidityAvg,HumidityLow,PressureMaxIn,PressureMinIn,WindSpeedMaxMPH,WindSpeedAvgMPH,GustSpeedMaxMPH,PrecipitationSumIn
2013-1-1,18,3,-16,16,-1,-20,90,83,72,30.22,29.97,3,1,10,0.00
2013-1-2,20,18,16,18,16,14,93,90,86,30.03,29.90,3,1,9,0.00
2013-1-3,19,12,10,16,8,5,88,81,66,30.21,30.03,3,2,10,0.00
2013-1-4,33,24,13,20,16,11,90,74,58,30.08,29.98,2,0,6,0.00
2013-1-5,21,14,7,15,11,4,91,87,76,29.92,29.85,2,0,6,0.00
2013-1-6,25,17,8,13,10,4,85,74,57,30.17,30.11,3,1,7,0.00
2013-1-7,40,34,28,27,25,22,81,70,60,29.88,29.82,4,2,11,0.01
2013-1-8,32,27,15,28,23,13,94,86,76,29.91,29.70,6,2,12,0.01
2013-1-9,33,27,23,25,21,19,85,77,63,30.29,29.94,7,2,23,0.00
2013-1-10,42,36,28,32,27,23,95,72,46,30.18,29.70,7,4,15,0.23
2013-1-11,37,35,33,36,34,32,97,96,95,29.70,29.35,5,1,10,0.27
2013-1-12,13,9,1,8,3,-3,82,76,69,30.02,29.72,6,2,15,0.05
2013-1-13,7,2,-3,1,-2,-7,84,81,75,30.14,30.01,4,1,8,0.00
2013-1-14,14,8,-1,4,2,-4,87,75,62,30.35,30.25,5,1,9,0.00
2013-1-15,26,20,5,16,13,3,90,73,57,30.17,29.75,5,2,13,0.00
2013-1-16,33,21,9,30,11,-4,94,67,43,30.19,29.59,5,2,14,0.00
2013-1-17,17,9,5,7,0,-4,84,68,55,30.32,30.19,3,1,10,0.00
2013-1-18,40,30,18,30,25,15,92,82,65,29.84,29.68,4,1,9,0.02
2013-1-19,37,19,-1,30,13,-7,95,77,62,30.17,29.64,12,5,28,0.02
2013-1-20,5,0,-6,-1,-7,-12,85,72,60,30.35,30.17,6,2,14,0.00
2013-1-21,-5,-10,-15,-12,-18,-21,80,69,59,30.29,30.22,5,2,14,0.00
2013-1-22,1,-6,-21,-5,-13,-25,82,72,60,30.33,30.18,3,0,6,0.00
2013-1-23,13,4,-4,6,-5,-15,84,66,49,30.48,30.10,15,5,24,0.00
2013-1-24,9,2,-9,1,-6,-16,70,66,64,30.59,30.12,7,3,13,0.00
2013-1-25,17,9,0,11,2,-6,80,71,62,30.27,29.86,6,2,17,0.00
2013-1-26,21,11,-2,12,3,-7,85,72,62,30.29,30.07,5,2,11,0.00
2013-1-27,33,27,21,28,19,12,90,72,65,30.07,29.82,6,3,11,0.00
2013-1-28,33,32,31,32,31,30,96,96,95,29.80,29.61,6,3,12,0.07
2013-1-29,34,31,26,32,28,20,96,87,79,29.73,29.49,13,5,19,0.07
2013-1-30,26,13,6,20,8,1,82,78,73,29.70,29.63,12,6,22,0.01
2013-1-31,6,-3,-10,1,-10,-17,79,70,65,30.21,29.70,10,5,18,0.00
2013-2-1,0,-7,-20,-4,-13,-24,84,75,55,30.25,30.02,3,1,11,0.00
2013-2-2,10,6,-1,3,-1,-5,87,74,62,30.13,29.94,3,1,7,0.00
2013-2-3,11,9,3,5,2,-1,81,73,68,30.03,29.93,5,1,9,0.00
2013-2-4,15,8,-1,6,-1,-8,85,66,52,30.03,29.73,4,1,8,0.00
2013-2-5,27,19,2,23,13,-1,91,78,60,30.03,29.61,9,3,17,0.00
2013-2-6,22,16,3,18,13,1,89,86,84,30.03,29.90,4,2,10,0.00
2013-2-7,27,24,22,22,21,18,93,87,77,30.23,30.01,12,7,17,0.00
2013-2-8,25,19,7,19,12,4,93,77,62,30.33,30.20,8,2,13,0.00
2013-2-9,30,29,26,27,25,23,94,88,85,30.04,29.88,5,3,14,0.00
2013-2-10,30,28,26,29,26,24,96,94,91,29.88,29.28,9,5,18,0.00
2013-2-11,28,21,12,27,17,9,96,85,77,29.98,29.31,7,4,15,0.00
2013-2-12,34,27,13,23,20,11,91,75,63,29.90,29.75,6,2,11,0.03
2013-2-13,40,30,19,30,25,17,96,82,64,29.75,29.54,4,1,8,0.11
2013-2-14,31,26,22,30,15,4,96,65,39,30.03,29.57,14,5,19,0.01
2013-2-15,17,8,2,4,1,-2,85,74,54,30.26,30.21,8,2,15,0.00
2013-2-16,4,1,-2,1,-1,-5,89,87,84,30.21,30.05,0,0,3,0.00
2013-2-17,31,22,1,22,15,-2,88,74,63,30.06,29.65,8,4,18,0.00
2013-2-18,31,18,8,28,12,2,88,78,73,29.75,29.49,10,5,20,0.00
2013-2-19,8,4,0,2,-6,-8,77,65,56,30.29,29.75,12,6,22,0.00
2013-2-20,15,5,-14,2,-3,-18,84,68,55,30.42,30.35,5,1,10,0.00
2013-2-21,22,15,1,17,7,-2,86,73,61,30.42,30.09,6,3,11,0.00
2013-2-22,28,24,17,22,20,14,93,85,71,29.92,29.82,7,3,12,0.01
2013-2-23,27,23,16,23,20,14,93,88,81,29.85,29.80,3,1,9,0.02
2013-2-24,36,24,4,23,17,1,91,76,57,30.04,29.99,2,0,51,0.01
2013-2-25,37,28,15,24,20,13,92,75,59,30.07,30.00,3,0,7,0.01
2013-2-26,36,27,15,27,22,13,94,82,68,30.01,29.88,9,4,15,0.00
2013-2-27,41,32,25,27,24,22,88,74,52,30.01,29.86,16,5,22,0.00
2013-2-28,29,28,27,22,20,18,79,72,67,30.17,30.01,10,6,17,0.00
2013-3-1,27,22,16,17,15,10,80,74,66,30.33,30.28,8,4,13,0.00
2013-3-2,29,22,8,12,10,5,88,62,44,30.31,30.13,4,1,6,0.00
2013-3-3,34,27,18,12,10,6,70,49,37,30.13,29.94,7,4,13,0.00
2013-3-4,25,24,23,21,19,8,91,83,48,30.00,29.92,9,4,18,0.00
2013-3-5,28,25,21,25,22,18,93,88,80,30.26,29.98,9,4,13,0.00
2013-3-6,27,22,14,20,16,11,89,78,67,30.38,30.26,6,2,10,0.00
2013-3-7,33,26,5,19,16,3,91,68,54,30.35,30.24,7,3,16,0.00
2013-3-8,40,33,19,28,25,17,91,73,62,30.26,30.11,5,2,10,0.03
2013-3-9,36,35,34,35,34,33,96,95,95,29.84,29.66,5,2,11,0.27
2013-3-10,33,31,30,30,26,24,87,83,79,29.97,29.86,15,11,25,0.05
2013-3-11,28,28,27,21,21,20,77,76,74,29.75,29.74,4,2,9,0.00
2013-3-12,29,25,20,19,15,12,79,67,48,30.06,29.85,13,6,20,0.00
2013-3-13,33,24,7,18,14,5,91,64,45,30.33,30.23,3,2,8,0.00
2013-3-14,40,32,24,28,26,22,91,78,61,30.10,30.02,5,2,8,0.10
2013-3-15,33,30,24,30,27,22,94,87,77,29.92,29.82,9,5,15,0.01
2013-3-16,22,16,8,12,8,1,86,69,58,30.20,30.05,8,3,14,0.00
2013-3-17,27,17,-2,14,6,-6,83,63,48,30.21,29.82,6,4,13,0.00
2013-3-18,28,23,17,26,17,10,93,80,65,29.82,29.53,8,4,18,0.00
2013-3-19,22,13,6,7,2,-3,76,60,45,30.14,29.89,8,5,21,0.00
2013-3-20,22,13,2,6,1,-5,72,59,49,30.16,30.06,10,4,18,0.00
2013-3-21,25,18,-6,10,6,-10,86,61,51,30.08,30.01,5,2,9,0.00
2013-3-22,35,24,-3,16,11,-6,87,59,45,30.04,30.00,4,1,9,0.02
2013-3-23,38,31,9,21,16,7,91,57,41,30.10,30.05,4,1,6,0.01
2013-3-24,32,30,26,23,22,20,90,72,65,30.04,29.96,12,6,19,0.00
2013-3-25,36,32,24,22,19,15,71,58,49,30.18,30.10,327,6,327,0.00
2013-3-26,40,31,21,24,20,16,82,63,44,30.26,30.18,3,1,11,0.00
2013-3-27,44,35,19,22,18,15,85,52,36,30.30,30.26,3,1,8,0.00
2013-3-28,46,39,15,23,21,13,92,50,37,30.31,30.23,6,2,9,0.00
2013-3-29,52,43,33,37,33,26,90,67,54,30.22,30.02,6,3,13,0.03
2013-3-30,51,45,38,42,39,36,95,80,63,30.02,29.82,5,2,10,0.54
2013-3-31,37,32,22,31,21,13,90,67,44,30.06,29.75,11,5,25,0.00
2013-4-1,26,22,16,14,12,10,77,67,60,30.23,30.06,7,3,13,0.00
2013-4-2,34,26,13,16,14,11,90,63,45,30.29,30.21,6,2,14,0.00
2013-4-3,46,37,12,33,24,10,92,59,41,30.34,30.03,7,4,18,0.00
2013-4-4,45,41,36,33,28,23,84,62,49,30.09,29.99,9,4,18,0.00
2013-4-5,40,34,19,31,23,16,89,67,43,30.22,29.96,8,4,17,0.00
2013-4-6,48,42,36,36,33,30,88,71,58,29.67,29.53,8,4,18,0.07
2013-4-7,38,36,34,31,30,29,83,78,74,29.91,29.85,5,1,7,0.06
2013-4-8,41,39,36,39,37,35,96,92,88,30.01,29.67,8,4,12,0.30
2013-4-9,42,38,32,28,26,24,79,64,56,30.16,30.03,16,8,27,0.00
2013-4-10,40,36,32,24,21,18,70,54,43,30.16,29.90,11,6,20,0.00
2013-4-11,35,31,28,31,28,20,95,89,53,29.83,29.69,11,7,22,0.09
2013-4-12,37,31,27,28,27,25,93,84,68,29.81,29.66,7,4,13,0.04
2013-4-13,35,31,26,27,24,20,94,77,57,29.90,29.80,4,2,12,0.05
2013-4-14,33,32,29,31,28,22,93,85,72,29.83,29.49,12,7,22,0.01
2013-4-15,39,37,33,31,30,28,83,76,68,29.76,29.51,8,5,19,0.02
2013-4-16,35,32,29,27,26,25,83,77,71,30.29,30.28,0,0,2,0.00
2013-4-17,39,35,29,32,30,25,95,80,72,30.29,29.94,12,5,17,0.00
2013-4-18,32,31,30,31,30,29,96,95,94,29.94,29.52,13,9,24,0.00
2013-4-19,37,32,28,29,24,17,96,75,51,29.88,29.52,16,7,27,0.10
2013-4-20,41,35,26,17,14,9,69,43,29,30.26,30.22,5,1,9,0.03
2013-4-21,46,41,33,42,37,30,95,85,72,30.20,29.97,9,4,22,0.20
2013-4-22,41,36,31,31,28,24,96,75,53,30.22,30.11,13,8,21,0.16
2013-4-23,41,34,25,27,23,19,92,66,42,30.14,30.03,7,3,12,0.12
2013-4-24,50,40,29,35,30,26,88,69,39,29.96,29.86,7,3,19,0.01
2013-4-25,49,43,35,31,29,27,80,59,42,30.16,30.08,6,3,12,0.01
2013-4-26,71,66,57,41,38,35,45,36,30,30.08,30.00,6,2,27,0.00
2013-4-27,74,65,36,41,35,32,89,36,21,30.08,29.87,5,2,12,0.00
2013-4-28,76,62,51,49,47,45,81,60,39,29.79,29.65,8,4,19,0.00
2013-4-29,70,58,44,48,38,31,78,50,27,29.81,29.54,6,3,11,0.00
2013-4-30,68,64,57,57,44,31,82,51,26,29.84,29.39,9,4,16,0.00
2013-5-1,44,39,34,32,28,26,91,66,51,30.42,30.24,8,4,15,0.03
2013-5-2,43,39,34,27,26,24,71,59,50,30.53,30.43,12,8,22,0.00
2013-5-3,37,35,32,33,29,24,90,79,61,30.31,30.16,12,8,20,0.05
2013-5-4,42,38,32,39,36,30,94,90,87,30.17,30.12,10,6,16,0.12
2013-5-5,65,50,37,49,42,35,92,76,56,30.16,30.05,8,4,9,0.02
2013-5-6,73,69,65,49,48,46,56,47,40,30.00,29.99,3,0,4,0.00
2013-5-7,78,73,59,53,47,42,76,42,29,30.04,29.93,7,2,12,0.00
2013-5-8,75,66,57,56,52,48,87,62,39,29.99,29.94,7,2,12,0.19
2013-5-9,56,49,43,53,42,31,91,78,62,30.11,29.98,12,8,22,0.05
2013-5-10,66,51,36,31,26,-100,75,46,23,30.11,29.87,6,2,11,0.00
2013-5-11,51,47,41,32,27,21,66,46,36,30.16,30.07,15,10,31,0.00
2013-5-12,58,47,34,25,22,16,65,40,20,30.20,30.06,9,4,17,0.00
2013-5-13,71,66,61,47,43,38,58,42,34,29.85,29.62,9,5,21,0.03
2013-5-14,93,69,44,54,43,29,92,48,13,29.69,29.46,12,3,21,0.03
2013-5-15,67,67,67,46,46,46,47,47,47,29.78,29.78,0,0,0,0.00
2013-5-16,80,65,68,41,0,-100,30,26,23,29.90,29.85,10,5,18,0.00
2013-5-17,68,60,58,47,44,33,65,58,27,29.96,29.90,5,4,11,0.00
2013-5-19,82,71,63,67,64,62,95,82,59,29.65,29.57,7,3,19,0.68
2013-5-20,71,65,54,63,60,52,97,83,66,29.57,29.49,7,4,19,0.77
2013-5-21,51,48,45,49,46,43,96,94,90,29.72,29.54,8,5,15,0.57
2013-5-22,50,48,44,47,46,43,96,93,87,29.89,29.70,13,8,22,0.25
2013-5-23,62,54,42,38,35,32,84,52,32,30.27,30.19,12,5,16,0.12
2013-5-24,67,59,44,52,40,33,93,53,32,30.37,30.17,8,3,16,0.45
2013-5-25,67,61,53,51,48,45,93,61,50,30.24,30.19,9,5,20,0.54
2013-5-26,62,58,52,45,42,37,71,57,42,30.20,30.08,9,5,17,0.00
2013-5-27,61,58,55,54,50,45,79,76,63,30.08,29.83,8,4,17,0.00
2013-5-28,61,57,53,56,54,51,94,89,84,29.75,29.70,4,2,9,0.02
2013-5-29,77,70,58,68,63,55,91,78,58,29.80,29.61,7,4,15,0.16
2013-5-30,76,70,66,66,64,62,93,82,65,29.64,29.50,7,3,19,0.60
2013-5-31,75,68,57,61,55,52,90,66,48,29.54,29.48,8,3,22,0.39
2013-6-1,69,62,51,59,55,50,96,78,68,29.76,29.54,13,5,20,0.00
2013-6-2,67,59,45,43,42,41,86,55,40,30.05,29.97,7,4,13,0.00
2013-6-3,68,64,59,50,46,43,66,53,43,30.05,29.96,4,1,9,0.00
2013-6-4,62,56,53,56,51,45,94,83,56,30.08,30.00,9,4,18,0.57
2013-6-5,58,55,52,56,54,50,96,93,89,30.00,29.94,6,2,13,0.40
2013-6-6,55,52,47,52,50,46,97,91,86,30.01,29.98,9,3,12,0.01
2013-6-7,63,57,51,54,52,48,90,82,69,30.04,29.92,3,1,6,0.00
2013-6-8,70,67,62,57,55,54,78,64,57,29.90,29.87,6,3,12,0.00
2013-6-9,59,57,56,58,55,53,96,93,88,29.82,29.79,11,5,19,0.46
2013-6-10,75,67,58,63,60,57,97,81,65,29.85,29.81,4,1,6,0.02
2013-6-11,79,71,61,67,64,60,97,79,64,29.88,29.82,0,0,0,0.00
2013-6-12,76,66,59,59,56,52,94,72,53,29.93,29.80,9,4,16,0.35
2013-6-13,75,67,56,58,56,50,90,67,51,30.09,30.00,6,2,11,0.11
2013-6-14,79,72,60,63,60,54,81,66,56,30.06,29.85,8,4,16,0.00
2013-6-15,75,69,56,68,64,52,91,83,76,29.88,29.84,5,1,8,0.01
2013-6-16,86,71,53,56,52,45,92,58,26,29.87,29.81,6,1,16,0.01
2013-6-17,77,69,57,61,56,49,95,65,48,30.02,29.88,8,4,14,0.00
2013-6-18,75,62,47,57,52,43,87,71,49,30.09,30.01,5,2,8,0.00
2013-6-19,84,72,59,63,60,53,83,66,44,30.03,29.92,5,2,11,0.00
2013-6-20,86,78,72,70,67,64,79,69,57,29.98,29.89,9,3,18,0.00
2013-6-22,82,74,68,70,68,65,92,80,61,29.97,29.85,5,2,9,0.24
2013-6-23,81,73,66,66,64,62,90,75,59,29.85,29.78,3,0,9,1.52
2013-6-24,83,78,61,71,68,60,97,73,59,29.88,29.78,4,1,11,0.00
2013-6-25,85,79,66,72,69,64,93,71,57,29.80,29.70,7,3,15,0.00
2013-6-26,88,83,76,75,70,66,92,66,56,29.75,29.64,6,2,13,0.00
2013-6-27,86,80,70,68,62,58,88,55,40,29.80,29.76,9,3,17,0.00
2013-6-29,75,69,58,63,59,51,95,71,56,29.99,29.83,10,5,18,0.50
2013-6-30,80,72,56,60,56,51,86,59,39,30.09,29.99,9,2,13,0.00
2013-7-1,81,72,62,57,56,54,81,59,40,30.15,30.14,6,2,10,0.00
2013-7-2,82,74,59,59,55,50,82,54,38,30.16,30.05,5,2,9,0.00
2013-7-3,84,79,68,60,56,52,65,46,34,30.06,29.93,4,1,9,0.00
2013-7-4,88,82,73,65,59,57,60,46,37,29.89,29.83,6,2,14,0.00
2013-7-5,88,81,72,67,64,58,68,55,42,29.85,29.77,7,4,16,0.00
2013-7-6,81,78,76,70,66,64,73,68,64,29.85,29.81,3,2,9,0.00
2013-7-7,92,81,72,76,71,66,90,71,55,29.87,29.79,10,2,18,0.09
2013-7-8,83,76,72,71,64,-100,87,74,63,29.97,29.93,4,1,7,0.10
2013-7-9,86,76,67,75,69,64,96,80,60,29.96,29.68,4,2,14,0.91
2013-7-10,80,72,62,65,59,55,88,65,45,30.04,29.90,10,2,16,0.02
2013-7-11,84,76,56,64,60,55,95,59,43,30.09,29.97,4,2,12,0.00
2013-7-12,88,83,75,66,64,62,65,53,47,29.98,29.85,7,4,20,0.00
2013-7-13,77,74,72,71,68,65,85,80,73,30.01,29.99,4,2,9,1.77
2013-7-14,83,76,71,71,68,64,84,75,64,30.14,30.08,3,1,10,0.00
2013-7-15,86,81,74,69,68,67,79,66,54,30.17,30.14,3,1,9,0.00
2013-7-16,91,86,78,75,73,70,78,65,55,30.18,30.15,5,1,12,0.00
2013-7-17,93,88,77,74,72,68,84,59,45,30.19,30.09,3,1,11,0.00
2013-7-18,93,86,73,74,72,70,90,64,48,30.09,29.72,6,3,18,0.00
2013-7-19,83,78,75,72,64,60,71,61,49,29.85,29.72,8,5,17,0.00
2013-7-20,75,71,65,59,57,54,79,62,50,29.95,29.91,4,2,7,0.08
2013-7-21,79,71,60,68,62,52,76,72,65,29.95,29.78,5,3,9,0.00
2013-7-22,85,77,66,72,63,56,80,63,50,29.84,29.66,9,4,16,0.00
2013-7-23,74,69,62,57,54,52,77,61,50,30.01,29.84,8,4,15,0.00
2013-7-24,77,76,74,61,60,58,64,59,54,29.97,29.94,2,1,5,0.00
2013-7-25,78,72,65,67,64,60,89,76,57,29.95,29.88,4,1,11,0.13
2013-7-26,67,61,54,61,54,48,88,78,65,30.08,29.91,14,6,19,0.11
2013-7-27,61,56,53,51,49,47,85,76,63,30.08,29.93,13,5,20,0.02
2013-7-28,71,62,51,55,52,47,94,72,53,30.04,29.96,9,3,12,0.01
2013-7-29,75,68,47,59,56,46,97,67,49,30.11,30.04,6,1,11,0.00
2013-7-30,70,64,60,65,62,58,95,92,84,30.08,30.04,3,0,6,0.19
2013-7-31,78,68,57,65,58,52,97,73,44,30.06,29.97,4,1,12,0.00
2013-8-1,80,74,57,64,58,52,83,61,45,30.01,29.85,5,1,7,0.00
2013-8-2,72,66,58,59,56,53,90,70,57,30.00,29.90,6,3,11,0.00
2013-8-3,66,61,58,52,51,51,77,70,59,30.16,30.14,0,0,1,0.00
2013-8-4,77,70,54,57,54,51,89,59,45,30.22,30.03,4,1,11,0.00
2013-8-5,82,72,62,68,64,58,88,76,61,29.84,29.79,3,1,7,0.21
2013-8-6,82,65,52,69,59,51,97,84,62,29.84,29.69,6,1,13,0.11
2013-8-7,77,70,62,57,53,50,82,55,42,29.98,29.93,7,4,14,0.10
2013-8-8,77,69,56,62,59,55,95,73,51,30.04,29.96,3,0,8,0.00
2013-8-9,71,66,57,61,55,50,96,69,50,30.10,30.02,6,2,18,0.00
2013-8-10,76,68,55,56,54,52,93,65,45,30.16,30.07,2,0,5,0.00
2013-8-11,81,71,54,61,59,52,94,67,49,30.07,29.98,3,1,7,0.00
2013-8-12,74,71,69,56,55,54,64,59,52,30.01,30.00,8,3,14,0.00
2013-8-13,74,66,55,55,51,47,94,62,39,30.19,30.12,6,2,8,0.00
2013-8-14,79,68,55,56,47,-100,87,56,39,30.18,30.08,6,1,13,0.00
2013-8-15,77,59,55,61,38,-100,96,65,50,30.11,30.06,2,0,5,0.00
2013-8-16,81,68,52,62,52,-100,97,64,44,30.17,30.11,5,1,11,0.00
2013-8-17,81,71,61,60,55,-100,87,60,47,30.17,30.08,4,1,15,0.00
2013-8-18,81,75,65,60,58,56,73,57,44,30.09,29.97,5,2,13,0.00
2013-8-19,86,74,69,71,46,-100,81,66,60,29.94,29.87,4,2,12,0.01
2013-8-20,90,81,69,74,68,-100,90,69,58,29.89,29.83,6,2,13,0.00
2013-8-21,89,81,72,76,70,61,94,71,45,29.98,29.83,7,3,12,0.00
2013-8-22,83,75,59,53,51,48,73,44,30,30.13,30.08,7,3,11,0.00
2013-8-23,85,76,60,67,61,50,83,61,44,30.14,30.01,5,2,11,0.00
2013-8-24,90,83,71,72,70,66,86,65,55,30.03,29.89,7,4,20,0.00
2013-8-25,95,92,89,77,76,74,67,59,54,29.93,29.90,6,3,15,0.00
2013-8-26,96,88,81,77,76,75,85,68,54,29.95,29.81,5,1,11,0.00
2013-8-27,88,80,75,77,75,73,95,85,68,29.83,29.78,5,2,8,0.00
2013-8-28,89,86,83,70,68,68,63,57,50,30.01,29.96,4,2,9,0.00
2013-8-29,91,83,73,77,73,70,93,74,52,29.97,29.83,5,2,12,0.00
2013-8-30,82,76,69,67,65,64,86,70,58,29.94,29.88,9,4,17,0.00
2013-8-31,89,75,63,69,65,62,97,73,50,29.85,29.70,3,1,10,0.14
2013-9-1,60,59,59,53,53,52,80,78,77,29.98,29.96,5,4,9,0.00
2013-9-2,67,60,55,54,53,51,88,77,61,30.09,29.98,5,2,10,0.00
2013-9-3,74,63,42,60,56,41,97,78,55,30.07,29.96,3,1,8,0.00
2013-9-4,79,72,57,65,62,56,97,74,59,30.11,29.99,6,2,9,0.00
2013-9-5,84,70,57,64,57,51,87,66,45,30.22,30.10,5,2,11,0.00
2013-9-6,89,86,83,70,69,68,62,57,50,29.86,29.85,4,2,12,0.00
2013-9-7,91,82,73,70,68,64,74,62,48,30.00,29.91,8,4,15,0.00
2013-9-8,66,64,61,59,59,58,90,84,76,29.98,29.87,4,2,8,0.01
2013-9-9,88,73,62,75,69,59,95,88,62,29.87,29.63,8,2,12,0.07
2013-9-10,85,74,66,69,64,59,96,73,45,29.95,29.85,4,1,11,0.08
2013-9-11,83,78,69,63,56,50,79,50,33,30.01,29.98,8,4,19,0.00
2013-9-12,69,63,57,52,48,46,82,60,45,30.20,30.10,13,4,16,0.00
2013-9-13,70,62,54,47,46,45,75,57,43,30.14,30.09,2,1,11,0.00
2013-9-14,62,57,56,58,55,54,95,93,88,29.93,29.89,3,2,7,0.71
2013-9-15,65,60,53,55,51,48,96,75,61,30.27,30.01,8,4,14,0.76
2013-9-16,66,55,37,45,41,36,97,63,38,30.39,30.23,5,2,11,0.00
2013-9-17,65,59,52,55,52,47,92,78,66,30.16,29.95,6,4,15,0.00
2013-9-19,74,68,63,70,66,62,98,94,85,29.77,29.60,7,1,26,2.89
2013-9-20,57,51,47,52,48,46,96,91,81,29.91,29.85,3,0,11,0.04
2013-9-21,62,52,45,48,46,44,97,81,58,29.97,29.89,4,1,8,0.01
2013-9-22,71,63,48,57,53,45,88,72,58,29.95,29.82,8,4,18,0.01
2013-9-23,67,60,53,54,52,49,86,75,63,29.91,29.90,6,4,16,0.00
2013-9-24,73,62,51,57,53,49,93,75,55,29.96,29.90,4,2,10,0.00
2013-9-25,73,73,72,55,54,53,54,52,50,29.92,29.88,8,4,15,0.00
2013-9-26,81,70,56,63,59,52,86,67,53,29.90,29.79,9,5,21,0.00
2013-9-27,77,71,67,63,62,61,81,74,63,29.88,29.79,6,4,14,0.00
2013-9-28,56,49,45,54,42,-100,95,89,93,29.90,29.68,1,0,8,0.31
2013-9-29,75,61,43,53,48,42,96,65,41,29.92,29.75,4,1,14,0.01
2013-9-30,69,65,59,54,52,49,69,63,56,29.65,29.58,5,2,15,0.00
2013-10-1,50,47,46,41,40,39,80,76,66,29.95,29.91,0,0,0,0.00
2013-10-2,74,55,38,51,42,36,97,68,29,30.02,29.87,6,2,13,0.36
2013-10-3,55,54,53,54,53,51,96,95,93,29.95,29.85,7,4,14,0.38
2013-10-4,58,55,53,54,52,51,95,91,83,29.99,29.92,9,5,17,0.01
2013-10-5,55,51,46,54,50,45,97,96,94,29.80,29.71,2,0,7,0.27
2013-10-6,51,48,42,49,46,41,97,94,90,29.80,29.67,7,2,14,0.11
2013-10-7,58,49,42,48,45,41,98,87,65,29.95,29.85,4,1,8,0.04
2013-10-8,67,67,67,48,48,47,50,50,49,29.81,29.81,2,1,7,0.00
2013-10-9,75,67,59,55,53,50,72,61,50,30.00,29.96,5,2,16,0.00
2013-10-10,69,62,52,54,51,46,80,67,55,29.97,29.85,5,3,12,0.00
2013-10-11,72,70,61,62,57,55,90,66,55,29.64,29.57,11,6,33,0.07
2013-10-12,60,50,44,55,45,42,91,82,70,30.06,29.64,6,1,13,0.13
2013-10-13,59,49,35,42,38,34,97,71,44,30.40,30.34,4,1,8,0.03
2013-10-14,51,48,44,44,41,37,90,77,66,30.35,30.00,6,2,12,0.19
2013-10-15,49,48,46,48,47,45,97,96,94,29.76,29.66,8,4,16,1.61
2013-10-16,54,45,34,41,38,33,96,78,57,29.93,29.84,6,1,9,0.04
2013-10-17,48,44,34,46,42,33,96,92,80,29.84,29.76,6,1,12,0.29
2013-10-18,52,45,37,40,36,33,94,73,51,29.95,29.85,3,1,11,0.76
2013-10-19,45,40,32,38,35,30,93,83,68,29.76,29.66,4,2,10,0.05
2013-10-20,35,34,33,34,33,32,96,96,95,29.79,29.61,5,2,8,0.11
2013-10-21,38,33,26,27,25,22,88,72,58,29.92,29.88,4,1,13,0.04
2013-10-22,40,34,25,33,30,24,95,86,71,29.99,29.92,6,1,8,0.00
2013-10-23,36,33,29,30,25,22,95,73,61,30.07,29.97,8,2,11,0.01
2013-10-24,41,36,31,32,29,22,89,74,64,30.25,30.07,5,2,13,0.01
2013-10-25,55,54,53,44,43,41,67,66,64,29.75,29.73,2,2,8,0.00
2013-10-26,39,35,37,30,20,-100,76,68,71,30.05,30.02,0,0,1,0.00
2013-10-27,55,44,30,37,32,27,87,65,49,30.04,29.78,10,3,16,0.00
2013-10-28,39,33,28,25,23,21,79,69,49,30.43,30.38,6,3,10,0.00
2013-10-29,35,34,31,32,29,25,90,83,76,30.29,30.11,4,2,10,0.01
2013-10-30,37,37,37,36,36,36,96,96,96,29.97,29.96,2,1,5,0.06
2013-10-31,42,40,39,41,38,37,97,96,94,29.52,29.37,3,1,8,0.03
2013-11-1,46,39,34,38,35,31,96,84,72,29.82,29.39,6,2,12,0.00
2013-11-2,45,37,29,34,31,27,93,80,63,30.03,29.82,4,2,8,0.00
2013-11-3,50,48,47,35,35,34,63,60,54,29.86,29.85,8,6,20,0.00
2013-11-4,47,41,31,43,37,30,96,88,63,30.06,29.78,5,2,13,0.46
2013-11-5,38,33,29,32,30,28,97,90,71,30.20,30.03,4,1,8,0.01
2013-11-6,35,30,24,30,27,22,93,88,82,30.11,30.07,0,0,2,0.12
2013-11-7,33,27,21,30,25,20,95,92,83,30.19,30.11,0,0,2,0.02
2013-11-8,42,40,38,37,32,28,94,75,63,29.72,29.55,7,3,16,0.09
2013-11-9,42,39,37,37,30,-100,94,76,65,30.16,29.56,8,4,19,0.09
2013-11-10,37,35,28,31,30,25,89,81,74,30.29,30.08,8,2,17,0.00
2013-11-11,24,20,15,12,10,8,73,64,54,30.63,30.35,11,6,25,0.00
2013-11-12,29,20,8,15,11,5,88,69,44,30.72,30.38,3,1,9,0.00
2013-11-13,46,36,21,35,27,15,81,69,54,30.37,29.83,7,3,15,0.00
2013-11-14,38,36,34,35,32,31,89,87,85,29.78,29.75,1,0,4,0.00
2013-11-15,56,45,27,40,36,26,96,73,54,29.80,29.65,6,1,11,0.00
2013-11-16,44,42,43,43,38,-100,97,93,95,29.26,29.21,3,1,6,0.15
2013-11-17,33,31,31,29,27,26,85,82,80,29.72,29.65,7,5,19,0.01
2013-11-18,31,26,18,21,20,16,92,77,67,30.20,29.99,6,3,13,0.00
2013-11-19,41,41,41,31,31,31,68,68,68,29.85,29.85,6,4,22,0.00
2013-11-20,44,42,38,34,32,28,82,68,53,29.94,29.85,7,4,15,0.00
2013-11-21,28,26,25,22,19,17,81,73,70,30.42,30.29,15,7,25,0.00
2013-11-22,32,24,14,16,9,4,80,56,32,30.54,30.41,9,4,20,0.00
2013-11-23,17,7,2,3,-2,-5,84,69,45,30.79,30.68,5,1,10,0.00
2013-11-24,32,30,28,18,17,16,64,60,52,30.06,29.93,7,5,17,0.00
2013-11-25,37,33,28,28,24,19,88,73,56,30.01,29.86,8,3,14,0.00
2013-11-26,20,17,13,7,6,5,73,62,53,30.33,30.19,9,5,19,0.00
2013-11-27,22,22,20,12,10,9,64,61,59,30.09,30.03,3,1,10,0.00
2013-11-28,25,21,9,13,11,6,87,67,58,30.42,30.28,9,3,12,0.00
2013-11-29,31,25,14,20,17,10,86,70,64,30.44,30.14,6,3,15,0.00
2013-11-30,37,30,25,27,18,-100,83,70,67,30.14,30.00,2,1,6,0.00
2013-12-1,33,24,13,26,20,11,94,86,75,30.15,30.08,1,0,5,0.00
2013-12-2,33,33,33,32,32,32,95,95,95,29.57,29.55,3,2,6,0.14
2013-12-3,33,33,32,32,32,30,97,96,94,29.76,29.57,5,2,9,0.32
2013-12-4,27,25,22,26,22,19,94,91,89,29.65,29.49,5,3,14,0.09
2013-12-5,5,0,-7,-1,-5,-10,85,79,74,30.25,29.94,4,1,14,0.00
2013-12-6,4,-6,-13,-4,-11,-16,85,79,66,30.53,30.25,2,0,9,0.00
2013-12-7,-6,-10,-17,-11,-19,-100,86,78,78,30.63,30.50,1,0,6,0.00
2013-12-8,9,2,-13,4,-2,-16,85,83,80,30.51,30.08,3,2,8,0.00
2013-12-9,1,-3,-7,-7,-9,-12,84,76,66,30.03,29.83,6,1,14,0.00
2013-12-10,8,3,-5,0,-3,-9,85,77,67,30.11,29.88,4,1,14,0.00
2013-12-11,1,-6,-16,-8,-12,-20,84,74,61,30.49,30.26,2,1,7,0.00
2013-12-12,15,8,-3,10,3,-6,86,80,74,30.23,30.10,0,0,4,0.00
2013-12-13,9,8,7,4,3,2,81,78,77,30.24,30.17,7,5,13,0.00
2013-12-14,12,7,-4,6,0,-100,86,79,75,30.19,30.03,4,2,12,0.00
2013-12-15,0,-4,-7,-9,-11,-13,80,72,61,30.11,30.06,6,1,12,0.00
2013-12-16,15,10,2,12,7,-1,91,87,82,29.95,29.86,3,1,8,0.00
2013-12-17,23,14,4,14,7,1,86,75,65,30.05,29.95,7,2,19,0.00
2013-12-18,27,24,19,22,20,14,92,81,69,29.68,29.61,4,1,13,0.00
2013-12-19,13,12,11,9,8,8,87,86,85,30.04,30.01,9,7,18,0.00
2013-12-20,15,14,14,11,10,10,84,84,82,29.87,29.84,0,0,1,0.00
2013-12-21,19,17,14,14,10,-100,87,81,80,29.96,29.88,6,4,10,0.00
2013-12-22,9,8,8,5,4,4,84,84,84,30.13,30.12,3,2,8,0.00
2013-12-23,-2,-4,-8,-8,-10,-13,80,77,72,30.45,30.29,7,2,12,0.00
2013-12-24,8,-1,-18,4,-8,-22,85,74,59,30.33,30.07,4,2,9,0.00
2013-12-25,22,14,8,18,10,4,88,84,78,30.07,29.99,5,2,13,0.00
2013-12-26,21,17,12,16,13,8,89,85,82,30.11,30.03,2,0,4,0.00
2013-12-27,27,27,26,26,26,25,95,95,95,29.94,29.93,0,0,1,0.03
2013-12-28,40,27,13,34,23,-100,96,88,74,30.01,29.64,16,5,29,0.05
2013-12-29,13,-7,-21,9,-15,-25,82,68,56,30.29,30.01,11,4,20,0.04
2013-12-30,-2,-7,-21,-6,-12,-25,85,81,76,30.23,30.14,2,0,6,0.00
2013-12-31,-5,-12,-22,-12,-17,-26,83,77,68,30.36,30.19,2,0,6,0.00
2014-1-1,-3,-6,-13,-9,-13,-18,76,72,68,30.45,30.36,5,2,9,0.00
2014-1-2,-4,-10,-17,-15,-18,-21,81,69,57,30.46,30.37,5,1,8,0.00